TimePDT,TemperatureF,Dew PointF,Humidity,Sea Level PressureIn,VisibilityMPH,Wind Direction,Wind SpeedMPH,Gust SpeedMPH,PrecipitationIn,Events,Conditions,WindDirDegrees,DateUTC
12:35 AM,59.0,50.0,72,30.04,10.0,ESE,4.6,-,N/A,,Clear,120,2012-10-06 07:35:00
12:55 AM,60.8,51.8,72,30.04,10.0,ESE,5.8,-,N/A,,Clear,120,2012-10-06 07:55:00
1:15 AM,59.0,50.0,72,30.04,10.0,ESE,5.8,-,N/A,,Clear,110,2012-10-06 08:15:00
1:35 AM,59.0,50.0,72,30.04,10.0,ESE,4.6,-,N/A,,Clear,120,2012-10-06 08:35:00
1:55 AM,59.0,50.0,72,30.04,10.0,ESE,4.6,-,N/A,,Clear,110,2012-10-06 08:55:00
2:15 AM,57.2,50.0,77,30.04,10.0,ESE,4.6,-,N/A,,Clear,110,2012-10-06 09:15:00
2:35 AM,57.2,50.0,77,30.04,10.0,ESE,4.6,-,N/A,,Clear,110,2012-10-06 09:35:00
2:55 AM,57.2,50.0,77,30.04,10.0,ESE,3.5,-,N/A,,Clear,110,2012-10-06 09:55:00
3:15 AM,55.4,50.0,82,30.03,10.0,ESE,4.6,-,N/A,,Clear,110,2012-10-06 10:15:00
3:35 AM,59.0,50.0,72,30.03,10.0,ESE,4.6,-,N/A,,Clear,120,2012-10-06 10:35:00
3:55 AM,53.6,48.2,82,30.03,10.0,Calm,Calm,-,N/A,,Clear,0,2012-10-06 10:55:00
4:15 AM,55.4,50.0,82,30.03,10.0,Calm,Calm,-,N/A,,Clear,0,2012-10-06 11:15:00
4:35 AM,53.6,48.2,82,30.03,10.0,South,3.5,-,N/A,,Clear,190,2012-10-06 11:35:00
5:15 AM,51.8,50.0,94,30.03,10.0,Calm,Calm,-,N/A,,Clear,0,2012-10-06 12:15:00
5:35 AM,53.6,50.0,88,30.03,10.0,Calm,Calm,-,N/A,,Clear,0,2012-10-06 12:35:00
5:55 AM,50.0,46.4,87,30.04,10.0,Calm,Calm,-,N/A,,Clear,0,2012-10-06 12:55:00
6:15 AM,50.0,46.4,87,30.03,10.0,Calm,Calm,-,N/A,,Clear,0,2012-10-06 13:15:00
6:35 AM,50.0,46.4,87,30.04,10.0,Calm,Calm,-,N/A,,Clear,0,2012-10-06 13:35:00
7:15 AM,48.2,46.4,93,30.04,10.0,NNW,3.5,-,N/A,,Clear,330,2012-10-06 14:15:00
7:35 AM,46.4,44.6,93,30.04,10.0,Calm,Calm,-,N/A,,Clear,0,2012-10-06 14:35:00
7:55 AM,50.0,46.4,87,30.04,10.0,Calm,Calm,-,N/A,,Clear,0,2012-10-06 14:55:00
8:15 AM,53.6,50.0,88,30.05,10.0,Calm,Calm,-,N/A,,Clear,0,2012-10-06 15:15:00
8:35 AM,55.4,50.0,82,30.05,10.0,Calm,Calm,-,N/A,,Clear,0,2012-10-06 15:35:00
8:55 AM,59.0,50.0,72,30.05,10.0,NE,4.6,-,N/A,,Clear,40,2012-10-06 15:55:00
9:15 AM,60.8,50.0,68,30.05,10.0,Calm,Calm,-,N/A,,Clear,0,2012-10-06 16:15:00
9:35 AM,62.6,50.0,63,30.05,10.0,East,4.6,-,N/A,,Clear,100,2012-10-06 16:35:00
9:55 AM,62.6,50.0,63,30.05,10.0,South,3.5,-,N/A,,Clear,190,2012-10-06 16:55:00
10:15 AM,64.4,50.0,59,30.05,10.0,SE,4.6,-,N/A,,Clear,140,2012-10-06 17:15:00
10:35 AM,64.4,50.0,59,30.05,10.0,ESE,3.5,-,N/A,,Clear,110,2012-10-06 17:35:00
10:55 AM,68.0,50.0,52,30.05,10.0,SSE,6.9,-,N/A,,Clear,160,2012-10-06 17:55:00
11:15 AM,68.0,50.0,52,30.03,10.0,East,3.5,-,N/A,,Clear,90,2012-10-06 18:15:00
11:35 AM,69.8,50.0,49,30.03,10.0,SW,4.6,-,N/A,,Clear,220,2012-10-06 18:35:00
11:55 AM,69.8,48.2,46,30.03,10.0,SW,3.5,-,N/A,,Clear,230,2012-10-06 18:55:00
12:15 PM,71.6,48.2,43,30.02,10.0,ESE,4.6,-,N/A,,Clear,120,2012-10-06 19:15:00
12:35 PM,71.6,46.4,41,30.01,10.0,South,6.9,-,N/A,,Clear,190,2012-10-06 19:35:00
12:55 PM,71.6,46.4,41,30.01,10.0,WSW,5.8,-,N/A,,Clear,240,2012-10-06 19:55:00
1:15 PM,73.4,46.4,38,30.00,10.0,SSE,3.5,-,N/A,,Clear,150,2012-10-06 20:15:00
1:35 PM,73.4,46.4,38,29.99,10.0,SW,8.1,-,N/A,,Clear,220,2012-10-06 20:35:00
1:55 PM,73.4,46.4,38,29.99,10.0,SSE,4.6,-,N/A,,Clear,150,2012-10-06 20:55:00
2:15 PM,73.4,48.2,41,29.98,10.0,WSW,5.8,-,N/A,,Clear,250,2012-10-06 21:15:00
2:35 PM,73.4,46.4,38,29.97,10.0,West,4.6,-,N/A,,Clear,260,2012-10-06 21:35:00
3:15 PM,73.4,50.0,44,29.97,10.0,WNW,3.5,-,N/A,,Clear,300,2012-10-06 22:15:00
3:35 PM,73.4,50.0,44,29.96,10.0,South,5.8,-,N/A,,Clear,180,2012-10-06 22:35:00
4:15 PM,75.2,48.2,38,29.95,10.0,South,3.5,-,N/A,,Clear,190,2012-10-06 23:15:00
4:35 PM,75.2,48.2,38,29.94,10.0,Calm,Calm,-,N/A,,Clear,0,2012-10-06 23:35:00
4:55 PM,75.2,46.4,36,29.94,10.0,SSW,6.9,-,N/A,,Clear,200,2012-10-06 23:55:00
5:15 PM,75.2,46.4,36,29.93,10.0,SW,4.6,-,N/A,,Clear,220,2012-10-07 00:15:00
5:35 PM,73.4,46.4,38,29.93,10.0,SSW,6.9,-,N/A,,Clear,210,2012-10-07 00:35:00
5:55 PM,73.4,46.4,38,29.93,10.0,WSW,4.6,-,N/A,,Clear,240,2012-10-07 00:55:00
6:15 PM,73.4,46.4,38,29.93,10.0,West,5.8,-,N/A,,Clear,260,2012-10-07 01:15:00
6:35 PM,69.8,48.2,46,29.93,10.0,West,4.6,-,N/A,,Clear,260,2012-10-07 01:35:00
6:55 PM,66.2,50.0,56,29.93,10.0,WNW,3.5,-,N/A,,Clear,290,2012-10-07 01:55:00
7:15 PM,66.2,50.0,56,29.93,10.0,Calm,Calm,-,N/A,,Clear,0,2012-10-07 02:15:00
7:35 PM,66.2,50.0,56,29.93,10.0,Calm,Calm,-,N/A,,Clear,0,2012-10-07 02:35:00
7:55 PM,62.6,50.0,63,29.93,10.0,Calm,Calm,-,N/A,,Clear,0,2012-10-07 02:55:00
8:15 PM,59.0,48.2,67,29.93,10.0,ENE,5.8,-,N/A,,Clear,60,2012-10-07 03:15:00
8:35 PM,59.0,48.2,67,29.94,10.0,East,5.8,-,N/A,,Clear,80,2012-10-07 03:35:00
8:55 PM,60.8,50.0,68,29.94,10.0,SE,3.5,-,N/A,,Clear,130,2012-10-07 03:55:00
9:15 PM,62.6,50.0,63,29.94,10.0,SE,4.6,-,N/A,,Clear,140,2012-10-07 04:15:00
9:35 PM,64.4,48.2,56,29.93,10.0,SSE,4.6,-,N/A,,Clear,160,2012-10-07 04:35:00
10:15 PM,60.8,46.4,59,29.94,10.0,South,4.6,-,N/A,,Clear,170,2012-10-07 05:15:00
10:35 PM,57.2,44.6,63,29.94,10.0,SE,3.5,-,N/A,,Clear,130,2012-10-07 05:35:00
10:55 PM,55.4,46.4,72,29.94,10.0,Calm,Calm,-,N/A,,Clear,0,2012-10-07 05:55:00
11:15 PM,53.6,46.4,77,29.94,10.0,East,3.5,-,N/A,,Clear,100,2012-10-07 06:15:00
11:35 PM,53.6,46.4,77,29.95,10.0,East,5.8,-,N/A,,Clear,90,2012-10-07 06:35:00
11:55 PM,59.0,48.2,67,29.94,10.0,SSE,3.5,-,N/A,,Clear,150,2012-10-07 06:55:00